Schneifelwetter: Wetterstation Hallschlag, 537 m . NN
Wetterdaten: Dienstag, 02.02.2010
Datum Zeit Temp. A. Feuchte A. Luftdruck Regen Wind Richtung Richtung Sonnenschein Helligkeit T Regen Taupunkt Windchill
02.02.2010 00:00 -3,0 C 95 % 1012 hPa 0,0 l/m 11,3 km/h (2 Bft) W22.5 270 0 min 0 lux 0,00 min -3,7 C -7,9 C
02.02.2010 00:15 -2,9 C 95 % 1012 hPa 0,0 l/m 13,6 km/h (3 Bft) W22.5 270 0 min 0 lux 0,00 min -3,6 C -9,5 C
02.02.2010 00:30 -3,0 C 94 % 1012 hPa 0,0 l/m 14,5 km/h (3 Bft) W22.5 260 0 min 0 lux 0,00 min -3,8 C -10,3 C
02.02.2010 00:45 -3,2 C 94 % 1012 hPa 0,0 l/m 13,6 km/h (3 Bft) W22.5 265 0 min 0 lux 0,00 min -4,0 C -9,9 C
02.02.2010 01:00 -3,4 C 94 % 1012 hPa 0,0 l/m 13,7 km/h (3 Bft) W22.5 260 0 min 0 lux 0,00 min -4,2 C -10,2 C
02.02.2010 01:15 -3,4 C 95 % 1012 hPa 0,0 l/m 6,3 km/h (2 Bft) W-SW 250 0 min 0 lux 0,00 min -4,1 C -3,4 C
02.02.2010 01:30 -3,2 C 96 % 1012 hPa 0,0 l/m 8,3 km/h (2 Bft) W-SW22.5 255 0 min 0 lux 0,00 min -3,7 C -5,3 C
02.02.2010 01:45 -3,0 C 96 % 1013 hPa 0,0 l/m 14,3 km/h (3 Bft) W22.5 260 0 min 0 lux 0,00 min -3,5 C -10,1 C
02.02.2010 02:00 -2,9 C 96 % 1013 hPa 0,0 l/m 18,3 km/h (3 Bft) W22.5 265 0 min 0 lux 0,00 min -3,4 C -12,5 C
02.02.2010 02:15 -2,7 C 97 % 1013 hPa 0,0 l/m 15,4 km/h (3 Bft) W22.5 260 0 min 0 lux 0,00 min -3,1 C -10,5 C
02.02.2010 02:30 -2,7 C 96 % 1013 hPa 0,0 l/m 20,0 km/h (4 Bft) W22.5 260 0 min 0 lux 0,00 min -3,2 C -13,1 C
02.02.2010 02:45 -2,8 C 96 % 1013 hPa 0,0 l/m 24,1 km/h (4 Bft) W22.5 260 0 min 0 lux 0,00 min -3,3 C -15,1 C
02.02.2010 03:00 -2,8 C 96 % 1013 hPa 0,0 l/m 27,6 km/h (4 Bft) W22.5 260 0 min 0 lux 0,00 min -3,3 C -16,5 C
02.02.2010 03:15 -2,9 C 96 % 1012 hPa 0,0 l/m 32,2 km/h (5 Bft) W22.5 265 0 min 0 lux 0,00 min -3,4 C -18,2 C
02.02.2010 03:30 -3,0 C 96 % 1012 hPa 0,0 l/m 21,6 km/h (4 Bft) W-SW22.5 255 0 min 0 lux 0,00 min -3,5 C -14,3 C
02.02.2010 03:45 -3,0 C 96 % 1012 hPa 0,0 l/m 33,2 km/h (5 Bft) W22.5 260 0 min 0 lux 0,00 min -3,5 C -18,6 C
02.02.2010 04:00 -3,1 C 96 % 1012 hPa 0,0 l/m 28,8 km/h (4 Bft) W-SW45 250 0 min 0 lux 0,00 min -3,6 C -17,4 C
02.02.2010 04:15 -3,4 C 96 % 1012 hPa 0,0 l/m 23,6 km/h (4 Bft) W-SW22.5 250 0 min 0 lux 0,00 min -3,9 C -15,7 C
02.02.2010 04:30 -3,7 C 96 % 1012 hPa 0,0 l/m 24,8 km/h (4 Bft) W-SW22.5 255 0 min 0 lux 0,00 min -4,2 C -16,6 C
02.02.2010 04:45 -3,8 C 96 % 1012 hPa 0,0 l/m 24,8 km/h (4 Bft) W22.5 260 0 min 0 lux 0,00 min -4,3 C -16,8 C
02.02.2010 05:00 -4,2 C 96 % 1013 hPa 0,0 l/m 20,8 km/h (4 Bft) W-SW22.5 255 0 min 0 lux 0,00 min -4,7 C -15,5 C
02.02.2010 05:15 -4,5 C 96 % 1012 hPa 0,0 l/m 21,0 km/h (4 Bft) W-SW22.5 245 0 min 0 lux 0,00 min -5,0 C -16,0 C
02.02.2010 05:30 -4,9 C 96 % 1012 hPa 0,0 l/m 26,7 km/h (4 Bft) W-SW22.5 250 0 min 0 lux 0,00 min -5,4 C -19,1 C
02.02.2010 05:45 -4,8 C 96 % 1012 hPa 0,0 l/m 27,0 km/h (4 Bft) W-SW22.5 245 0 min 0 lux 0,00 min -5,3 C -19,0 C
02.02.2010 06:00 -4,8 C 96 % 1012 hPa 0,0 l/m 27,6 km/h (4 Bft) W-SW45 240 0 min 0 lux 0,00 min -5,3 C -19,3 C
02.02.2010 06:15 -4,8 C 96 % 1012 hPa 0,0 l/m 27,6 km/h (4 Bft) W-SW45 245 0 min 0 lux 0,00 min -5,3 C -19,3 C
02.02.2010 06:30 -4,9 C 96 % 1011 hPa 0,0 l/m 29,5 km/h (5 Bft) W-SW22.5 255 0 min 0 lux 0,00 min -5,4 C -20,1 C
02.02.2010 06:45 -4,9 C 96 % 1011 hPa 0,0 l/m 21,8 km/h (4 Bft) W-SW22.5 240 0 min 0 lux 0,00 min -5,4 C -16,9 C
02.02.2010 07:00 -4,8 C 96 % 1011 hPa 0,0 l/m 22,3 km/h (4 Bft) W-SW22.5 245 0 min 0 lux 0,00 min -5,3 C -17,0 C
02.02.2010 07:15 -4,7 C 96 % 1011 hPa 0,0 l/m 19,6 km/h (3 Bft) SW45 235 0 min 0 lux 0,00 min -5,2 C -15,5 C
02.02.2010 07:30 -4,6 C 96 % 1011 hPa 0,0 l/m 22,6 km/h (4 Bft) SW45 230 0 min 0 lux 0,00 min -5,1 C -16,9 C
02.02.2010 07:45 -4,6 C 96 % 1011 hPa 0,0 l/m 18,4 km/h (3 Bft) W-SW22.5 240 0 min 0 lux 0,00 min -5,1 C -14,7 C
02.02.2010 08:00 -4,4 C 96 % 1011 hPa 0,0 l/m 26,8 km/h (4 Bft) SW45 220 0 min 110 lux 0,00 min -4,9 C -18,4 C
02.02.2010 08:15 -4,1 C 97 % 1011 hPa 0,0 l/m 30,1 km/h (5 Bft) SW45 230 0 min 526 lux 0,00 min -4,5 C -19,2 C
02.02.2010 08:30 -3,9 C 97 % 1011 hPa 0,0 l/m 30,2 km/h (5 Bft) SW45 220 0 min 1,22 klux 0,00 min -4,3 C -19,0 C
02.02.2010 08:45 -3,7 C 97 % 1010 hPa 0,0 l/m 31,6 km/h (5 Bft) SW45 220 0 min 2,54 klux 0,00 min -4,1 C -19,1 C
02.02.2010 09:00 -3,5 C 98 % 1010 hPa 0,0 l/m 32,1 km/h (5 Bft) SW45 220 0 min 4,28 klux 0,00 min -3,8 C -19,0 C
02.02.2010 09:15 -3,3 C 98 % 1010 hPa 0,0 l/m 30,4 km/h (5 Bft) SW45 215 0 min 6,23 klux 0,00 min -3,6 C -18,2 C
02.02.2010 09:30 -3,1 C 98 % 1010 hPa 0,0 l/m 33,5 km/h (5 Bft) SW45 230 0 min 6,14 klux 0,00 min -3,4 C -18,9 C
02.02.2010 09:45 -3,0 C 98 % 1010 hPa 0,0 l/m 31,2 km/h (5 Bft) SW45 230 0 min 6,08 klux 0,00 min -3,3 C -18,0 C
02.02.2010 10:00 -2,8 C 98 % 1010 hPa 0,0 l/m 39,8 km/h (6 Bft) SW45 220 0 min 8,88 klux 0,00 min -3,1 C -20,0 C
02.02.2010 10:15 -2,8 C 97 % 1009 hPa 0,0 l/m 29,1 km/h (5 Bft) SW45 220 0 min 9,3 klux 0,00 min -3,2 C -17,0 C
02.02.2010 10:30 -2,6 C 97 % 1009 hPa 0,0 l/m 30,3 km/h (5 Bft) SW45 220 0 min 10,8 klux 0,00 min -3,0 C -17,2 C
02.02.2010 10:45 -2,3 C 96 % 1009 hPa 0,0 l/m 33,5 km/h (5 Bft) SW45 225 0 min 13,4 klux 0,00 min -2,8 C -17,7 C
02.02.2010 11:00 -2,1 C 96 % 1009 hPa 0,0 l/m 32,6 km/h (5 Bft) SW45 220 0 min 14,9 klux 0,00 min -2,6 C -17,2 C
02.02.2010 11:15 -1,9 C 96 % 1009 hPa 0,0 l/m 31,7 km/h (5 Bft) SW45 215 0 min 15,6 klux 0,00 min -2,5 C -16,6 C
02.02.2010 11:30 -1,8 C 95 % 1008 hPa 0,0 l/m 34,6 km/h (5 Bft) SW22.5 225 0 min 14,6 klux 0,00 min -2,5 C -17,3 C
02.02.2010 11:45 -1,6 C 95 % 1008 hPa 0,0 l/m 30,0 km/h (5 Bft) SW22.5 225 0 min 16,5 klux 0,00 min -2,3 C -15,7 C
02.02.2010 11:59 -1,4 C 95 % 1008 hPa 0,0 l/m 36,8 km/h (5 Bft) SW45 230 0 min 17,5 klux 0,00 min -2,1 C -17,3 C
02.02.2010 12:15 -1,3 C 95 % 1008 hPa 0,0 l/m 35,0 km/h (5 Bft) SW45 230 0 min 16,9 klux 0,00 min -2,0 C -16,7 C
02.02.2010 12:30 -1,1 C 95 % 1007 hPa 0,0 l/m 38,5 km/h (5 Bft) SW22.5 220 0 min 15,2 klux 0,00 min -1,8 C -17,2 C
02.02.2010 12:45 -1,0 C 95 % 1007 hPa 0,0 l/m 40,5 km/h (6 Bft) SW22.5 215 0 min 16,5 klux 0,00 min -1,7 C -17,5 C
02.02.2010 13:00 -0,8 C 96 % 1006 hPa 0,0 l/m 36,3 km/h (5 Bft) SW45 225 0 min 20,2 klux 0,00 min -1,4 C -16,3 C
02.02.2010 13:15 -0,6 C 96 % 1006 hPa 0,0 l/m 48,3 km/h (6 Bft) SW45 220 0 min 20,0 klux 0,00 min -1,2 C -18,3 C
02.02.2010 13:30 -0,6 C 96 % 1006 hPa 0,3 l/m 38,9 km/h (6 Bft) SW45 230 0 min 16,9 klux 15,00 min -1,2 C -16,6 C
02.02.2010 13:45 -0,6 C 96 % 1005 hPa 0,0 l/m 40,5 km/h (6 Bft) SW45 220 0 min 16,0 klux 0,00 min -1,2 C -16,9 C
02.02.2010 14:00 -0,6 C 96 % 1005 hPa 0,0 l/m 38,1 km/h (5 Bft) SW45 225 0 min 12,9 klux 0,00 min -1,2 C -16,4 C
02.02.2010 14:15 -0,6 C 96 % 1005 hPa 0,0 l/m 39,2 km/h (6 Bft) SW45 225 0 min 12,9 klux 0,00 min -1,2 C -16,7 C
02.02.2010 14:30 -0,5 C 96 % 1005 hPa 0,0 l/m 35,0 km/h (5 Bft) SW45 220 0 min 14,0 klux 0,00 min -1,1 C -15,5 C
02.02.2010 14:45 -0,4 C 96 % 1004 hPa 0,0 l/m 40,3 km/h (6 Bft) SW45 220 0 min 15,1 klux 0,00 min -1,0 C -16,6 C
02.02.2010 15:00 -0,4 C 96 % 1004 hPa 0,0 l/m 37,2 km/h (5 Bft) SW45 235 0 min 13,1 klux 0,00 min -1,0 C -15,9 C
02.02.2010 15:15 -0,5 C 97 % 1004 hPa 0,0 l/m 39,3 km/h (6 Bft) SW45 225 0 min 9,4 klux 0,00 min -0,9 C -16,5 C
02.02.2010 15:30 -0,6 C 97 % 1003 hPa 0,3 l/m 38,0 km/h (5 Bft) SW45 220 0 min 9,1 klux 15,00 min -1,0 C -16,4 C
02.02.2010 15:45 -0,7 C 98 % 1003 hPa 0,0 l/m 37,5 km/h (5 Bft) SW22.5 230 0 min 7,05 klux 0,00 min -1,0 C -16,4 C
02.02.2010 16:00 -0,8 C 98 % 1003 hPa 0,0 l/m 51,9 km/h (7 Bft) SW45 235 0 min 3,89 klux 0,00 min -1,1 C -19,2 C
02.02.2010 16:15 -0,7 C 98 % 1003 hPa 0,0 l/m 50,5 km/h (7 Bft) W-SW45 250 0 min 5,70 klux 0,00 min -1,0 C -18,8 C
02.02.2010 16:30 -0,8 C 98 % 1003 hPa 0,0 l/m 43,8 km/h (6 Bft) W-SW22.5 240 0 min 4,71 klux 0,00 min -1,1 C -17,9 C
02.02.2010 16:45 -0,9 C 98 % 1003 hPa 0,3 l/m 45,4 km/h (6 Bft) W-SW22.5 250 0 min 2,60 klux 15,00 min -1,2 C -18,3 C
02.02.2010 16:59 -0,8 C 98 % 1002 hPa 0,0 l/m 45,3 km/h (6 Bft) W-SW45 245 0 min 1,66 klux 0,00 min -1,1 C -18,1 C
02.02.2010 17:15 -0,9 C 99 % 1002 hPa 0,0 l/m 43,9 km/h (6 Bft) W-SW45 240 0 min 1,01 klux 0,00 min -1,0 C -18,0 C
02.02.2010 17:30 -0,9 C 99 % 1002 hPa 0,0 l/m 47,8 km/h (6 Bft) W-SW22.5 240 0 min 571 lux 0,00 min -1,0 C -18,7 C
02.02.2010 17:45 -1,0 C 99 % 1002 hPa 0,0 l/m 51,4 km/h (7 Bft) W-SW22.5 250 0 min 196 lux 0,00 min -1,1 C -19,4 C
02.02.2010 18:00 -1,0 C 99 % 1002 hPa 0,3 l/m 45,5 km/h (6 Bft) W-SW22.5 250 0 min 33 lux 15,00 min -1,1 C -18,5 C
02.02.2010 18:15 -1,0 C 99 % 1002 hPa 0,0 l/m 43,2 km/h (6 Bft) SW45 230 0 min 7 lux 0,00 min -1,1 C -18,1 C
02.02.2010 18:30 -0,8 C 99 % 1002 hPa 0,0 l/m 43,2 km/h (6 Bft) W-SW45 240 0 min 1 lux 0,00 min -0,9 C -17,8 C
02.02.2010 18:45 -0,7 C 99 % 1001 hPa 0,0 l/m 47,1 km/h (6 Bft) W-SW22.5 250 0 min 0 lux 0,00 min -0,8 C -18,3 C
02.02.2010 19:00 -0,6 C 99 % 1001 hPa 0,3 l/m 45,2 km/h (6 Bft) W-SW45 240 0 min 0 lux 15,00 min -0,7 C -17,8 C
02.02.2010 19:15 -0,6 C 99 % 1001 hPa 0,0 l/m 48,1 km/h (6 Bft) W-SW45 245 0 min 0 lux 0,00 min -0,7 C -18,3 C
02.02.2010 19:30 -0,5 C 99 % 1001 hPa 0,0 l/m 43,3 km/h (6 Bft) W-SW45 240 0 min 0 lux 0,00 min -0,6 C -17,3 C
02.02.2010 19:45 -0,4 C 99 % 1001 hPa 0,0 l/m 44,7 km/h (6 Bft) W-SW22.5 250 0 min 0 lux 0,00 min -0,5 C -17,4 C
02.02.2010 20:00 -0,4 C 99 % 1001 hPa 0,0 l/m 45,9 km/h (6 Bft) W-SW45 250 0 min 0 lux 0,00 min -0,5 C -17,6 C
02.02.2010 20:15 -0,3 C 99 % 1001 hPa 0,0 l/m 46,8 km/h (6 Bft) W-SW22.5 250 0 min 0 lux 0,00 min -0,4 C -17,6 C
02.02.2010 20:30 -0,3 C 99 % 1001 hPa 0,0 l/m 44,1 km/h (6 Bft) W-SW45 250 0 min 0 lux 0,00 min -0,4 C -17,2 C
02.02.2010 20:45 -0,3 C 99 % 1000 hPa 0,0 l/m 41,3 km/h (6 Bft) W-SW45 245 0 min 0 lux 0,00 min -0,4 C -16,6 C
02.02.2010 21:00 -0,2 C 99 % 1000 hPa 0,0 l/m 35,3 km/h (5 Bft) W-SW22.5 255 0 min 0 lux 0,00 min -0,3 C -15,2 C
02.02.2010 21:15 -0,2 C 99 % 1000 hPa 0,0 l/m 39,6 km/h (6 Bft) W-SW45 240 0 min 0 lux 0,00 min -0,3 C -16,1 C
02.02.2010 21:30 -0,2 C 99 % 1000 hPa 0,0 l/m 40,5 km/h (6 Bft) W-SW45 240 0 min 0 lux 0,00 min -0,3 C -16,3 C
02.02.2010 21:45 -0,2 C 99 % 1000 hPa 0,0 l/m 41,3 km/h (6 Bft) W-SW22.5 250 0 min 0 lux 0,00 min -0,3 C -16,5 C
02.02.2010 22:00 -0,2 C 99 % 1000 hPa 0,0 l/m 41,6 km/h (6 Bft) W-SW22.5 255 0 min 0 lux 0,00 min -0,3 C -16,6 C
02.02.2010 22:15 -0,2 C 99 % 1000 hPa 0,0 l/m 43,7 km/h (6 Bft) W-SW22.5 255 0 min 0 lux 0,00 min -0,3 C -17,0 C
02.02.2010 22:30 0,0 C 99 % 1000 hPa 0,0 l/m 42,8 km/h (6 Bft) W-SW45 250 0 min 0 lux 0,00 min -0,1 C -16,5 C
02.02.2010 22:45 -0,2 C 99 % 1000 hPa 0,0 l/m 34,8 km/h (5 Bft) W-SW45 245 0 min 0 lux 0,00 min -0,3 C -15,0 C
02.02.2010 23:00 -0,2 C 99 % 1000 hPa 0,0 l/m 34,5 km/h (5 Bft) W-SW45 245 0 min 0 lux 0,00 min -0,3 C -15,0 C
02.02.2010 23:15 0,0 C 99 % 1000 hPa 0,0 l/m 35,5 km/h (5 Bft) W-SW45 250 0 min 0 lux 0,00 min -0,1 C -14,9 C
02.02.2010 23:30 0,1 C 99 % 999 hPa 0,0 l/m 35,7 km/h (5 Bft) W-SW22.5 250 0 min 0 lux 0,00 min -0,0 C -14,8 C
02.02.2010 23:45 0,2 C 99 % 1000 hPa 0,0 l/m 32,9 km/h (5 Bft) W-SW45 245 0 min 0 lux 0,00 min 0,1 C -14,0 C
02.02.2010 23:54 0,3 C 99 % 999 hPa 2,1 l/m 37,7 km/h (5 Bft) W-SW22.5 255 0 min 0 lux 9,00 min 0,2 C -15,0 C
_ Min-Zeit 05:30 00:30 23:30 - 01:15 - - - - - 05:30 06:30
Minimum _ -4,9 C 94 % 999 hPa - 6,3 km/h (2 Bft) - - - - - -5,4 C -20,1 C
_ Max-Zeit 23:54 17:15 01:45 23:54 16:00 - - 00:00 13:00 13:30 23:54 01:15
Maximum _ 0,3 C 99 % 1013 hPa 2,1 l/m 51,9 km/h
SW (7 Bft)
- - 0 min 20,2 klux 15,00 min 0,2 C -3,4 C
Durchschnitt _ -2,0 C 97 % 1007 hPa #3,6 l/m 33,2 km/h (5 Bft) W-SW - #0 min. 3,96 klux #1:24 h -2,4 C -16,3 C